| time (UTC) | temp C | wind direction | speed KPH | gust KPH | rain 1hr cm | rain 24hr cm | rain mn cm | humidity % | barometer mb |
| 20260502215904 | 15 | 302 | 1.6 | 4.8 | 0.00 | 0.00 | 0.00 | 33 | 1018.2 |
| 20260502214404 | 15 | 28 | 0.0 | 4.8 | 0.00 | 0.00 | 0.00 | 33 | 1018.4 |
| 20260502213904 | 15 | 27 | 3.2 | 8.0 | 0.00 | 0.00 | 0.00 | 31 | 1018.6 |
| 20260502213404 | 15 | 303 | 3.2 | 8.0 | 0.00 | 0.00 | 0.00 | 32 | 1018.7 |
| 20260502212404 | 15 | 59 | 3.2 | 4.8 | 0.00 | 0.00 | 0.00 | 32 | 1018.9 |
| 20260502211903 | 15 | 35 | 1.6 | 4.8 | 0.00 | 0.00 | 0.00 | 32 | 1018.9 |
| 20260502211404 | 15 | 58 | 1.6 | 4.8 | 0.00 | 0.00 | 0.00 | 34 | 1019.0 |
| 20260502210405 | 15 | 301 | 1.6 | 4.8 | 0.00 | 0.00 | 0.00 | 33 | 1019.1 |
| 20260502205903 | 15 | 24 | 1.6 | 4.8 | 0.00 | 0.00 | 0.00 | 32 | 1019.2 |
| 20260502204903 | 16 | 273 | 1.6 | 8.0 | 0.00 | 0.00 | 0.00 | 31 | 1019.2 |
| 20260502204404 | 16 | 229 | 3.2 | 8.0 | 0.00 | 0.00 | 0.00 | 31 | 1019.3 |
| 20260502203904 | 17 | 44 | 3.2 | 8.0 | 0.00 | 0.00 | 0.00 | 30 | 1019.3 |
| 20260502202904 | 17 | 309 | 1.6 | 9.7 | 0.00 | 0.00 | 0.00 | 33 | 1019.4 |
| 20260502201904 | 16 | 13 | 1.6 | 9.7 | 0.00 | 0.00 | 0.00 | 35 | 1019.6 |
| 20260502201404 | 16 | 53 | 3.2 | 9.7 | 0.00 | 0.00 | 0.00 | 33 | 1019.6 |
| 20260502200904 | 16 | 286 | 3.2 | 11.3 | 0.00 | 0.00 | 0.00 | 33 | 1019.7 |
| 20260502200405 | 15 | 357 | 3.2 | 14.5 | 0.00 | 0.00 | 0.00 | 32 | 1019.8 |
| 20260502194904 | 15 | 306 | 4.8 | 12.9 | 0.00 | 0.00 | 0.00 | 32 | 1020.1 |
| 20260502193403 | 15 | 135 | 6.4 | 14.5 | 0.00 | 0.00 | 0.00 | 31 | 1020.3 |
| 20260502192904 | 16 | 169 | 3.2 | 14.5 | 0.00 | 0.00 | 0.00 | 35 | 1020.3 |
| 20260502191904 | 15 | 14 | 3.2 | 8.0 | 0.00 | 0.00 | 0.00 | 34 | 1020.6 |
| 20260502185904 | 15 | 11 | 3.2 | 11.3 | 0.00 | 0.00 | 0.00 | 36 | 1020.9 |
| 20260502185404 | 15 | 257 | 4.8 | 11.3 | 0.00 | 0.00 | 0.00 | 39 | 1021.0 |
| 20260502183903 | 13 | 185 | 3.2 | 14.5 | 0.00 | 0.00 | 0.00 | 39 | 1021.1 |
| 20260502182903 | 14 | 219 | 3.2 | 12.9 | 0.00 | 0.00 | 0.00 | 40 | 1021.2 |
| 20260502181904 | 14 | 237 | 3.2 | 12.9 | 0.00 | 0.00 | 0.00 | 42 | 1021.3 |
| 20260502181404 | 13 | 313 | 3.2 | 12.9 | 0.00 | 0.00 | 0.00 | 44 | 1021.3 |
| 20260502180405 | 13 | 315 | 3.2 | 12.9 | 0.00 | 0.00 | 0.00 | 45 | 1021.3 |
| 20260502163903 | 10 | 229 | 1.6 | 8.0 | 0.00 | 0.00 | 0.00 | 64 | 1022.3 |
| 20260502163404 | 9 | 284 | 3.2 | 9.7 | 0.00 | 0.00 | 0.00 | 65 | 1022.4 |
| 20260502162904 | 9 | 256 | 3.2 | 9.7 | 0.00 | 0.00 | 0.00 | 66 | 1022.4 |
| 20260502161403 | 8 | 298 | 3.2 | 9.7 | 0.00 | 0.00 | 0.00 | 70 | 1022.3 |
| 20260502160904 | 8 | 330 | 3.2 | 9.7 | 0.00 | 0.00 | 0.00 | 71 | 1022.3 |
| 20260502151904 | 7 | 275 | 3.2 | 4.8 | 0.00 | 0.00 | 0.00 | 79 | 1022.4 |
| 20260502151403 | 6 | 12 | 1.6 | 4.8 | 0.00 | 0.00 | 0.00 | 79 | 1022.4 |
| 20260502130404 | 1 | 47 | 0.0 | 3.2 | 0.00 | 0.00 | 0.00 | 87 | 1022.3 |
| 20260502123404 | 1 | 46 | 0.0 | 0.0 | 0.00 | 0.00 | 0.00 | 87 | 1021.7 |
| 20260502122905 | 1 | 46 | 0.0 | 0.0 | 0.00 | 0.00 | 0.00 | 86 | 1021.7 |
| 20260502121903 | 2 | 47 | 0.0 | 0.0 | 0.00 | 0.00 | 0.00 | 86 | 1021.6 |
| 20260502121403 | 2 | 46 | 0.0 | 0.0 | 0.00 | 0.00 | 0.00 | 86 | 1021.7 |
| 20260502120904 | 2 | 47 | 0.0 | 3.2 | 0.00 | 0.00 | 0.00 | 86 | 1021.6 |
| 20260502120404 | 2 | 47 | 0.0 | 3.2 | 0.00 | 0.00 | 0.00 | 86 | 1021.6 |
| 20260502114903 | 3 | 47 | 0.0 | 0.0 | 0.00 | 0.00 | 0.00 | 86 | 1021.7 |
| 20260502114403 | 3 | 46 | 0.0 | 0.0 | 0.00 | 0.00 | 0.00 | 86 | 1021.7 |
| 20260502113904 | 3 | 47 | 0.0 | 0.0 | 0.00 | 0.00 | 0.00 | 86 | 1021.7 |
| 20260502113404 | 3 | 47 | 0.0 | 0.0 | 0.00 | 0.00 | 0.00 | 86 | 1021.8 |
| 20260502112904 | 3 | 47 | 0.0 | 0.0 | 0.00 | 0.00 | 0.00 | 86 | 1021.9 |
| 20260502112404 | 3 | 47 | 0.0 | 0.0 | 0.00 | 0.00 | 0.00 | 86 | 1021.9 |
| 20260502111904 | 3 | 47 | 0.0 | 3.2 | 0.00 | 0.00 | 0.00 | 86 | 1021.8 |
| 20260502111403 | 3 | 47 | 0.0 | 3.2 | 0.00 | 0.00 | 0.00 | 86 | 1021.9 |
| 20260502110903 | 3 | 47 | 0.0 | 3.2 | 0.00 | 0.00 | 0.00 | 86 | 1021.7 |
| 20260502110404 | 3 | 47 | 0.0 | 3.2 | 0.00 | 0.00 | 0.00 | 86 | 1021.7 |
| 20260502104904 | 3 | 47 | 1.6 | 3.2 | 0.00 | 0.00 | 0.00 | 86 | 1021.6 |
| 20260502103903 | 3 | 84 | 0.0 | 0.0 | 0.00 | 0.00 | 0.00 | 86 | 1021.5 |
| 20260502102904 | 3 | 84 | 0.0 | 1.6 | 0.00 | 0.00 | 0.00 | 86 | 1021.2 |
| 20260502102404 | 3 | 84 | 0.0 | 1.6 | 0.00 | 0.00 | 0.00 | 86 | 1021.1 |
| 20260502090903 | 4 | 91 | 0.0 | 0.0 | 0.00 | 0.00 | 0.00 | 86 | 1020.3 |
| 20260502090404 | 4 | 91 | 0.0 | 0.0 | 0.00 | 0.00 | 0.00 | 86 | 1020.3 |
| 20260502065903 | 4 | 104 | 0.0 | 0.0 | 0.00 | 0.03 | 0.00 | 86 | 1021.1 |
| 20260502064404 | 4 | 104 | 0.0 | 1.6 | 0.00 | 0.03 | 0.00 | 86 | 1020.8 |
| 20260502063403 | 4 | 104 | 0.0 | 0.0 | 0.00 | 0.03 | 0.00 | 86 | 1020.8 |
| 20260502055904 | 4 | 104 | 0.0 | 1.6 | 0.00 | 0.03 | 0.03 | 86 | 1020.4 |
| 20260502055404 | 4 | 104 | 0.0 | 3.2 | 0.00 | 0.03 | 0.03 | 86 | 1020.3 |
| 20260502053904 | 4 | 104 | 0.0 | 1.6 | 0.00 | 0.03 | 0.03 | 86 | 1020.1 |
| 20260502053404 | 4 | 104 | 0.0 | 0.0 | 0.00 | 0.03 | 0.03 | 86 | 1020.0 |
| 20260502052903 | 4 | 104 | 0.0 | 0.0 | 0.00 | 0.03 | 0.03 | 86 | 1019.9 |
| 20260502051403 | 4 | 104 | 0.0 | 1.6 | 0.00 | 0.03 | 0.03 | 86 | 1019.6 |
| 20260502050903 | 4 | 104 | 0.0 | 1.6 | 0.00 | 0.03 | 0.03 | 86 | 1019.5 |
| 20260502045903 | 4 | 91 | 0.0 | 1.6 | 0.00 | 0.03 | 0.03 | 86 | 1019.3 |
| 20260502044904 | 4 | 75 | 0.0 | 1.6 | 0.00 | 0.03 | 0.03 | 86 | 1019.2 |
| 20260502044403 | 5 | 75 | 0.0 | 3.2 | 0.00 | 0.03 | 0.03 | 86 | 1019.1 |
| 20260502043905 | 5 | 75 | 0.0 | 3.2 | 0.00 | 0.03 | 0.03 | 86 | 1019.0 |
| 20260502042904 | 5 | 78 | 0.0 | 3.2 | 0.00 | 0.03 | 0.03 | 86 | 1019.0 |
| 20260502042403 | 5 | 78 | 0.0 | 3.2 | 0.00 | 0.03 | 0.03 | 86 | 1019.0 |
| 20260502041903 | 5 | 43 | 0.0 | 1.6 | 0.00 | 0.03 | 0.03 | 86 | 1018.9 |
| 20260502035404 | 5 | 43 | 0.0 | 3.2 | 0.00 | 0.03 | 0.03 | 85 | 1019.1 |
| 20260502034904 | 5 | 43 | 0.0 | 3.2 | 0.00 | 0.03 | 0.03 | 86 | 1019.1 |
| 20260502034403 | 5 | 38 | 0.0 | 3.2 | 0.00 | 0.03 | 0.03 | 85 | 1019.1 |
| 20260502033904 | 5 | 38 | 0.0 | 3.2 | 0.00 | 0.03 | 0.03 | 85 | 1019.0 |
| 20260502033403 | 5 | 70 | 1.6 | 4.8 | 0.00 | 0.03 | 0.03 | 85 | 1018.9 |
| 20260502032403 | 5 | 62 | 0.0 | 4.8 | 0.00 | 0.03 | 0.03 | 85 | 1018.6 |
| 20260502031904 | 5 | 65 | 0.0 | 4.8 | 0.00 | 0.03 | 0.03 | 85 | 1018.5 |
| 20260502030404 | 5 | 201 | 0.0 | 0.0 | 0.00 | 0.03 | 0.03 | 85 | 1018.0 |
| 20260502025405 | 5 | 201 | 0.0 | 3.2 | 0.00 | 0.03 | 0.03 | 85 | 1017.7 |
| 20260502024905 | 5 | 201 | 1.6 | 3.2 | 0.00 | 0.03 | 0.03 | 85 | 1017.4 |
| 20260502023904 | 5 | 201 | 0.0 | 0.0 | 0.00 | 0.03 | 0.03 | 85 | 1017.1 |
| 20260502021404 | 5 | 201 | 0.0 | 0.0 | 0.00 | 0.03 | 0.03 | 84 | 1016.8 |
| 20260502020904 | 5 | 201 | 0.0 | 0.0 | 0.00 | 0.03 | 0.03 | 84 | 1016.9 |
| 20260502020405 | 5 | 201 | 0.0 | 0.0 | 0.00 | 0.03 | 0.03 | 84 | 1016.9 |
| 20260502015404 | 5 | 201 | 0.0 | 0.0 | 0.00 | 0.03 | 0.03 | 84 | 1016.4 |
| 20260502014904 | 5 | 201 | 0.0 | 4.8 | 0.00 | 0.03 | 0.03 | 84 | 1016.4 |
| 20260502014404 | 5 | 201 | 0.0 | 4.8 | 0.00 | 0.03 | 0.03 | 83 | 1016.3 |
| 20260502013905 | 5 | 192 | 1.6 | 4.8 | 0.00 | 0.03 | 0.03 | 83 | 1016.3 |
| 20260502013404 | 6 | 180 | 0.0 | 3.2 | 0.00 | 0.03 | 0.03 | 83 | 1016.2 |
| 20260502012904 | 6 | 175 | 0.0 | 1.6 | 0.00 | 0.03 | 0.03 | 83 | 1016.1 |
| 20260502011905 | 6 | 175 | 1.6 | 4.8 | 0.00 | 0.03 | 0.03 | 83 | 1016.0 |
| 20260502010405 | 6 | 273 | 0.0 | 1.6 | 0.00 | 0.03 | 0.03 | 84 | 1015.8 |
| 20260502005405 | 6 | 261 | 0.0 | 4.8 | 0.00 | 0.03 | 0.03 | 83 | 1015.6 |
| 20260502004404 | 7 | 0 | 0.0 | 4.8 | 0.00 | 0.03 | 0.03 | 83 | 1015.2 |
| 20260502003904 | 7 | 0 | 3.2 | 4.8 | 0.00 | 0.03 | 0.03 | 83 | 1015.0 |
| 20260502003404 | 7 | 0 | 3.2 | 4.8 | 0.00 | 0.03 | 0.03 | 84 | 1015.0 |
| 20260502002905 | 6 | 0 | 3.2 | 9.7 | 0.00 | 0.03 | 0.03 | 84 | 1014.8 |
| 20260502002404 | 6 | 0 | 1.6 | 16.1 | 0.00 | 0.03 | 0.03 | 84 | 1014.5 |
| 20260502001904 | 6 | 0 | 9.7 | 16.1 | 0.00 | 0.03 | 0.03 | 84 | 1014.4 |
| 20260502001404 | 6 | 0 | 6.4 | 12.9 | 0.00 | 0.03 | 0.03 | 85 | 1014.5 |
| 20260502000904 | 6 | 142 | 6.4 | 12.9 | 0.00 | 0.03 | 0.03 | 85 | 1014.4 |
| 20260501235404 | 6 | 151 | 3.2 | 16.1 | 0.00 | 0.03 | 0.03 | 85 | 1014.4 |
| 20260501234404 | 5 | 136 | 6.4 | 16.1 | 0.00 | 0.03 | 0.03 | 84 | 1014.2 |
| 20260501233904 | 5 | 183 | 1.6 | 4.8 | 0.00 | 0.03 | 0.03 | 84 | 1014.9 |
| 20260501232904 | 6 | 192 | 1.6 | 8.0 | 0.00 | 0.03 | 0.03 | 84 | 1015.2 |
| 20260501232404 | 6 | 176 | 1.6 | 3.2 | 0.00 | 0.03 | 0.03 | 84 | 1015.1 |
| 20260501231904 | 6 | 176 | 0.0 | 3.2 | 0.00 | 0.03 | 0.03 | 84 | 1014.8 |
| 20260501225906 | 6 | 65 | 3.2 | 8.0 | 0.00 | 0.03 | 0.03 | 84 | 1014.0 |
| 20260501225404 | 6 | 140 | 4.8 | 9.7 | 0.00 | 0.03 | 0.03 | 84 | 1013.9 |
| 20260501222405 | 6 | 149 | 3.2 | 9.7 | 0.00 | 0.03 | 0.03 | 83 | 1013.2 |
| 20260501221904 | 6 | 130 | 3.2 | 8.0 | 0.00 | 0.03 | 0.03 | 82 | 1013.1 |